Location: Bagong Pook
(14.2541°N, 120.8791°E)
Time: 03:05:28
(UTC+00:00)

CARTOSAT-1 - Pass Details

Date: 13 January 2026
Orbit: 594 x 598 km, 97.5° (Epoch: 16 February)

Event Time Altitude Azimuth Distance (km) Brightness Sun altitude
Rises 10:27:45 0° 145° (SE) 2,830 6.8 -10.3°
Reaches altitude 10° 10:30:12 10° 132° (SE) 1,929 5.8 -10.9°
Maximum altitude 10:33:39 25° 76° (ENE) 1,201 4.4 -11.6°
Drops below altitude 10° 10:37:08 10° 20° (NNE) 1,931 5.7 -12.4°
Sets 10:39:34 0° 7° (N) 2,833 6.7 -13.0°
